Hourly Weather Rudakov

Today, 29 July, Thursday

Time Temperature Precipitation Wind Pressure Humidity
00:00 +26°C° 0 mm 2 mps 750 mmHg 36%
01:00 +25°C° 0 mm 2 mps 750 mmHg 39%
02:00 +25°C° 0 mm 2 mps 750 mmHg 42%
03:00 +24°C° 0 mm 2 mps 750 mmHg 46%
04:00 +24°C° 0 mm 2 mps 750 mmHg 48%
05:00 +24°C° 0 mm 2 mps 750 mmHg 51%
06:00 +25°C° 0 mm 2 mps 750 mmHg 53%
07:00 +27°C° 0 mm 2 mps 750 mmHg 48%
08:00 +29°C° 0 mm 2 mps 750 mmHg 42%
09:00 +31°C° 0 mm 3 mps 750 mmHg 37%
10:00 +33°C° 0 mm 3 mps 750 mmHg 33%
11:00 +34°C° 0 mm 4 mps 750 mmHg 29%
12:00 +35°C° 0 mm 4 mps 749 mmHg 25%
13:00 +36°C° 0 mm 4 mps 749 mmHg 25%
14:00 +36°C° 0 mm 4 mps 749 mmHg 25%
15:00 +36°C° 0 mm 4 mps 748 mmHg 25%
16:00 +35°C° 0 mm 4 mps 748 mmHg 27%
17:00 +35°C° 0 mm 3 mps 748 mmHg 29%
18:00 +34°C° 0 mm 3 mps 748 mmHg 31%
19:00 +33°C° 0 mm 3 mps 748 mmHg 34%
20:00 +30°C° 0 mm 3 mps 748 mmHg 37%
21:00 +29°C° 0 mm 3 mps 748 mmHg 41%
22:00 +28°C° 0 mm 3 mps 748 mmHg 42%
23:00 +27°C° 0 mm 2 mps 748 mmHg 43%

Tomorrow, 30 July, Friday

Time Temperature Precipitation Wind Pressure Humidity
00:00 +26°C° 0 mm 2 mps 748 mmHg 44%
01:00 +26°C° 0 mm 2 mps 748 mmHg 46%
02:00 +25°C° 0 mm 2 mps 748 mmHg 49%
03:00 +25°C° 0 mm 1 mps 748 mmHg 51%
04:00 +25°C° 0 mm 1 mps 748 mmHg 52%
05:00 +25°C° 0 mm 1 mps 748 mmHg 53%
06:00 +25°C° 0 mm 1 mps 748 mmHg 54%
07:00 +27°C° 0 mm 2 mps 748 mmHg 48%
08:00 +29°C° 0 mm 3 mps 748 mmHg 43%
09:00 +31°C° 0 mm 3 mps 748 mmHg 38%
10:00 +33°C° 0 mm 4 mps 748 mmHg 34%
11:00 +34°C° 0 mm 5 mps 748 mmHg 31%
12:00 +36°C° 0 mm 5 mps 748 mmHg 27%
13:00 +36°C° 0 mm 6 mps 747 mmHg 27%
14:00 +36°C° 0 mm 6 mps 747 mmHg 26%
15:00 +36°C° 0 mm 6 mps 747 mmHg 26%
16:00 +35°C° 0 mm 6 mps 747 mmHg 31%
17:00 +33°C° 0 mm 5 mps 746 mmHg 35%
18:00 +32°C° 0 mm 4 mps 746 mmHg 40%
19:00 +30°C° 0.1 mm 4 mps 746 mmHg 46%
20:00 +28°C° 0.1 mm 3 mps 746 mmHg 51%
21:00 +27°C° 0.1 mm 2 mps 746 mmHg 57%
22:00 +26°C° 0 mm 2 mps 746 mmHg 60%
23:00 +26°C° 0 mm 2 mps 746 mmHg 64%

Day after tomorrow, 31 July, Saturday

Time Temperature Precipitation Wind Pressure Humidity
00:00 +25°C° 0 mm 1 mps 746 mmHg 67%
01:00 +25°C° 0 mm 1 mps 746 mmHg 70%
02:00 +24°C° 0 mm 1 mps 746 mmHg 72%
03:00 +23°C° 0 mm 1 mps 746 mmHg 75%
04:00 +23°C° 0 mm 1 mps 746 mmHg 74%
05:00 +24°C° 0 mm 1 mps 746 mmHg 73%
06:00 +22°C° 0 mm 0 mps 746 mmHg 72%
07:00 +26°C° 0 mm 1 mps 747 mmHg 65%
08:00 +27°C° 0 mm 1 mps 747 mmHg 57%
09:00 +29°C° 0 mm 1 mps 747 mmHg 49%
10:00 +31°C° 0 mm 1 mps 747 mmHg 44%
11:00 +32°C° 0 mm 2 mps 747 mmHg 40%
12:00 +35°C° 0 mm 2 mps 747 mmHg 35%
13:00 +35°C° 0 mm 2 mps 746 mmHg 34%
14:00 +35°C° 0 mm 2 mps 746 mmHg 33%
15:00 +36°C° 0 mm 2 mps 746 mmHg 33%
16:00 +33°C° 1.1 mm 3 mps 746 mmHg 46%
17:00 +29°C° 1.1 mm 4 mps 746 mmHg 60%
18:00 +26°C° 1.1 mm 4 mps 747 mmHg 73%
19:00 +26°C° 0 mm 3 mps 747 mmHg 72%
20:00 +26°C° 0 mm 3 mps 747 mmHg 70%
21:00 +26°C° 0 mm 2 mps 747 mmHg 68%
22:00 +25°C° 0 mm 2 mps 747 mmHg 70%
23:00 +25°C° 0 mm 2 mps 747 mmHg 71%

1 August, Sunday

Time Temperature Precipitation Wind Pressure Humidity
00:00 +24°C° 0 mm 2 mps 748 mmHg 72%
01:00 +24°C° 0 mm 2 mps 748 mmHg 73%
02:00 +24°C° 0 mm 2 mps 748 mmHg 74%
03:00 +24°C° 0 mm 2 mps 748 mmHg 74%
04:00 +24°C° 0 mm 2 mps 748 mmHg 74%
05:00 +24°C° 0 mm 2 mps 748 mmHg 74%
06:00 +24°C° 0 mm 2 mps 748 mmHg 74%
07:00 +26°C° 0 mm 2 mps 748 mmHg 64%
08:00 +28°C° 0 mm 2 mps 748 mmHg 55%
09:00 +30°C° 0 mm 2 mps 748 mmHg 45%
10:00 +32°C° 0 mm 2 mps 748 mmHg 39%
11:00 +34°C° 0 mm 1 mps 748 mmHg 32%
12:00 +36°C° 0 mm 1 mps 748 mmHg 26%
13:00 +37°C° 0 mm 1 mps 747 mmHg 24%
14:00 +37°C° 0 mm 1 mps 747 mmHg 23%
15:00 +39°C° 0 mm 1 mps 747 mmHg 21%
16:00 +39°C° 0 mm 1 mps 747 mmHg 22%
17:00 +37°C° 0 mm 1 mps 747 mmHg 23%
18:00 +38°C° 0 mm 2 mps 747 mmHg 24%
19:00 +36°C° 0 mm 2 mps 747 mmHg 27%
20:00 +34°C° 0 mm 2 mps 747 mmHg 30%
21:00 +31°C° 0 mm 2 mps 747 mmHg 33%
22:00 +31°C° 0 mm 2 mps 747 mmHg 34%
23:00 +30°C° 0 mm 2 mps 747 mmHg 36%

2 August, Monday

Time Temperature Precipitation Wind Pressure Humidity
00:00 +29°C° 0 mm 2 mps 747 mmHg 37%
01:00 +29°C° 0 mm 1 mps 747 mmHg 39%
02:00 +28°C° 0 mm 1 mps 747 mmHg 40%
03:00 +28°C° 0 mm 1 mps 747 mmHg 41%
04:00 +28°C° 0 mm 1 mps 747 mmHg 42%
05:00 +28°C° 0 mm 1 mps 747 mmHg 42%
06:00 +28°C° 0 mm 1 mps 747 mmHg 42%
07:00 +30°C° 0 mm 1 mps 747 mmHg 37%
08:00 +32°C° 0 mm 2 mps 747 mmHg 32%
09:00 +36°C° 0 mm 2 mps 747 mmHg 26%
10:00 +37°C° 0 mm 2 mps 747 mmHg 23%
11:00 +39°C° 0 mm 2 mps 747 mmHg 21%
12:00 +40°C° 0 mm 2 mps 747 mmHg 18%
13:00 +40°C° 0 mm 2 mps 746 mmHg 17%
14:00 +41°C° 0 mm 2 mps 746 mmHg 17%
15:00 +41°C° 0 mm 1 mps 746 mmHg 16%
16:00 +40°C° 0 mm 2 mps 746 mmHg 18%
17:00 +39°C° 0 mm 2 mps 745 mmHg 19%
18:00 +38°C° 0 mm 2 mps 745 mmHg 21%
19:00 +37°C° 0 mm 2 mps 745 mmHg 21%
20:00 +35°C° 0 mm 2 mps 745 mmHg 22%
21:00 +34°C° 0 mm 2 mps 745 mmHg 22%
22:00 +32°C° 0 mm 2 mps 745 mmHg 23%
23:00 +31°C° 0 mm 2 mps 745 mmHg 24%

3 August, Tuesday

Time Temperature Precipitation Wind Pressure Humidity
00:00 +30°C° 0 mm 2 mps 745 mmHg 25%
01:00 +30°C° 0 mm 2 mps 745 mmHg 26%
02:00 +30°C° 0 mm 1 mps 745 mmHg 26%
03:00 +30°C° 0 mm 1 mps 745 mmHg 26%
04:00 +30°C° 0 mm 1 mps 746 mmHg 29%
05:00 +29°C° 0 mm 2 mps 746 mmHg 31%
06:00 +29°C° 0 mm 2 mps 746 mmHg 33%
07:00 +31°C° 0 mm 2 mps 746 mmHg 32%
08:00 +32°C° 0 mm 2 mps 746 mmHg 31%
09:00 +34°C° 0 mm 1 mps 746 mmHg 30%
10:00 +36°C° 0 mm 2 mps 746 mmHg 29%
11:00 +37°C° 0 mm 2 mps 746 mmHg 28%
12:00 +37°C° 0 mm 3 mps 747 mmHg 28%
13:00 +38°C° 0 mm 3 mps 746 mmHg 27%
14:00 +38°C° 0 mm 3 mps 746 mmHg 27%
15:00 +38°C° 0 mm 3 mps 746 mmHg 27%
16:00 +36°C° 0.2 mm 5 mps 746 mmHg 33%
17:00 +33°C° 0.2 mm 6 mps 746 mmHg 40%
18:00 +31°C° 0.2 mm 8 mps 747 mmHg 46%
19:00 +30°C° 0 mm 6 mps 747 mmHg 45%
20:00 +29°C° 0 mm 5 mps 747 mmHg 43%
21:00 +29°C° 0 mm 3 mps 747 mmHg 42%
22:00 +28°C° 0 mm 3 mps 747 mmHg 46%
23:00 +27°C° 0 mm 3 mps 747 mmHg 49%
Show more

We Need Your Consent

Meteoprog and our Service Providers may store and access personal data such as cookies, device identifiers or other similar technologies on your device and process such data to personalise content and ads, as well as provide social media features and to analyse the traffic.

  • Store and/or access information on your device

    Cookies, device identifiers or other information can be stored or accessed on your device for the purposes indicated above.

  • Personalised ads and content, ad and content measurement, audience insights, and products development

    Ads and content can be personalised based on a profile. More data can be added to better personalise ads and content. Ad and content performance can be measured. Insights about the audience who saw the ads and content can be derived. Such data can be used to develop or improve user’s experience, systems and software.

By clicking ‘I Agree’ you will allow the use of indicated cookies, device identifiers, web beacons or other similar technologies. Your settings can be changed in the browser on your device.

For certain purposes, legitimate interests may be relied on, rather than consent. You can read more about this in our Privacy and Cookie Policy.